FIN1BL EFHK-EKCH

Flight info

Callsign FIN1BL
Flight time 1h 35m
Altitude 34000
Route NUNTO Y369 REKDO DCT KOSKA DCT KOTAM L990 EKRAL P605 TIDVU
Aircraft A320/M-SDE3FGHIRWY/LB1

Departure

Time 2026-05-04 17:33
Airport Helsinki Vantaa Airport (EFHK)

Arrival

Time 2026-05-04 19:08
Airport Copenhagen Kastrup Airport (EKCH)
Time Latitude Longitude Altitude Speed Heading
2026-05-04 16:48 60.31945 24.96922 167 ft 0 kts 242°
2026-05-04 17:20 60.31955 24.96961 166 ft 4 kts 242°
2026-05-04 17:20 60.31966 24.97006 166 ft 4 kts 255°
2026-05-04 17:21 60.31965 24.97050 166 ft 0 kts 333°
2026-05-04 17:27 60.31966 24.97049 166 ft 2 kts 333°
2026-05-04 17:27 60.32117 24.96885 166 ft 17 kts 330°
2026-05-04 17:28 60.32300 24.96671 168 ft 11 kts 329°
2026-05-04 17:29 60.32385 24.96571 174 ft 13 kts 329°
2026-05-04 17:29 60.32852 24.96026 174 ft 23 kts 330°
2026-05-04 17:30 60.33143 24.95637 180 ft 21 kts 317°
2026-05-04 17:31 60.33137 24.95232 178 ft 20 kts 230°
2026-05-04 17:31 60.33120 24.94518 189 ft 13 kts 274°
2026-05-04 17:32 60.33022 24.94187 197 ft 21 kts 227°
2026-05-04 17:33 60.31617 24.91086 431 ft 155 kts 228°
2026-05-04 17:33 60.30910 24.89493 1182 ft 151 kts 232°
2026-05-04 17:34 60.29851 24.83797 3091 ft 147 kts 274°
2026-05-04 17:34 60.30024 24.81717 3538 ft 159 kts 283°
2026-05-04 17:35 60.29655 24.73883 4461 ft 230 kts 250°
2026-05-04 17:35 60.28357 24.67651 5990 ft 246 kts 249°
2026-05-04 17:35 60.27686 24.64453 6814 ft 249 kts 249°
2026-05-04 17:36 60.27017 24.61237 7751 ft 247 kts 249°
2026-05-04 17:36 60.26355 24.58004 8612 ft 251 kts 249°
2026-05-04 17:36 60.25686 24.54737 9486 ft 254 kts 249°
2026-05-04 17:36 60.25010 24.51436 10254 ft 256 kts 249°
2026-05-04 17:37 60.24323 24.48114 11041 ft 258 kts 245°
2026-05-04 17:37 60.23461 24.44775 11325 ft 281 kts 243°
2026-05-04 17:37 60.22497 24.41189 11622 ft 299 kts 243°
2026-05-04 17:37 60.21486 24.37456 12220 ft 307 kts 243°
2026-05-04 17:38 60.20458 24.33665 12946 ft 310 kts 243°
2026-05-04 17:38 60.19413 24.29830 13656 ft 314 kts 242°
2026-05-04 17:38 60.18355 24.25980 14317 ft 316 kts 242°
2026-05-04 17:38 60.17300 24.22153 14978 ft 319 kts 242°
2026-05-04 17:39 60.15167 24.14261 16255 ft 324 kts 242°
2026-05-04 17:39 60.14092 24.10281 16931 ft 325 kts 242°
2026-05-04 17:39 60.13005 24.06296 17628 ft 326 kts 242°
2026-05-04 17:40 60.11906 24.02290 18191 ft 330 kts 242°
2026-05-04 17:40 60.10792 23.98235 18717 ft 333 kts 242°
2026-05-04 17:40 60.09668 23.94146 19279 ft 336 kts 242°
2026-05-04 17:40 60.08539 23.90034 19880 ft 338 kts 242°
2026-05-04 17:41 60.07414 23.85889 20463 ft 340 kts 243°
2026-05-04 17:41 60.06308 23.81689 20980 ft 342 kts 243°
2026-05-04 17:41 60.05208 23.77443 21522 ft 345 kts 243°
2026-05-04 17:41 60.04104 23.73163 22058 ft 347 kts 243°
2026-05-04 17:42 60.02989 23.68861 22583 ft 350 kts 243°
2026-05-04 17:42 60.01857 23.64525 23087 ft 353 kts 243°
2026-05-04 17:42 60.00711 23.60170 23523 ft 355 kts 243°
2026-05-04 17:42 59.99552 23.55792 23941 ft 358 kts 243°
2026-05-04 17:43 59.98383 23.51388 24343 ft 360 kts 243°
2026-05-04 17:43 59.97209 23.46963 24735 ft 362 kts 243°
2026-05-04 17:43 59.96023 23.42503 25118 ft 364 kts 243°
2026-05-04 17:43 59.94831 23.38029 25501 ft 366 kts 243°
2026-05-04 17:44 59.93631 23.33540 25871 ft 368 kts 243°
2026-05-04 17:44 59.92425 23.29033 26238 ft 370 kts 243°
2026-05-04 17:44 59.91207 23.24494 26596 ft 372 kts 243°
2026-05-04 17:44 59.89982 23.19942 26958 ft 374 kts 243°
2026-05-04 17:45 59.88749 23.15368 27299 ft 376 kts 243°
2026-05-04 17:45 59.87510 23.10769 27599 ft 378 kts 243°
2026-05-04 17:45 59.86262 23.06148 27920 ft 380 kts 243°
2026-05-04 17:45 59.85003 23.01501 28241 ft 383 kts 243°
2026-05-04 17:46 59.83734 22.96832 28557 ft 384 kts 243°
2026-05-04 17:46 59.82458 22.92150 28923 ft 386 kts 243°
2026-05-04 17:46 59.81178 22.87462 29258 ft 387 kts 243°
2026-05-04 17:46 59.79892 22.82754 29561 ft 388 kts 244°
2026-05-04 17:47 59.78603 22.78029 29830 ft 390 kts 244°
2026-05-04 17:47 59.77308 22.73290 30051 ft 392 kts 243°
2026-05-04 17:47 59.76004 22.68530 30261 ft 394 kts 243°
2026-05-04 17:47 59.74690 22.63753 30460 ft 395 kts 243°
2026-05-04 17:48 59.73367 22.58959 30663 ft 397 kts 243°
2026-05-04 17:48 59.72488 22.55781 30794 ft 398 kts 243°
2026-05-04 17:48 59.71158 22.50980 31066 ft 397 kts 243°
2026-05-04 17:48 59.69826 22.46182 31340 ft 397 kts 243°
2026-05-04 17:49 59.68492 22.41395 31612 ft 397 kts 243°
2026-05-04 17:49 59.67156 22.36619 31880 ft 397 kts 243°
2026-05-04 17:49 59.65820 22.31840 32151 ft 397 kts 243°
2026-05-04 17:49 59.64485 22.27071 32420 ft 397 kts 243°
2026-05-04 17:50 59.63147 22.22293 32692 ft 397 kts 243°
2026-05-04 17:50 59.61809 22.17525 32952 ft 397 kts 243°
2026-05-04 17:50 59.60471 22.12770 33222 ft 397 kts 243°
2026-05-04 17:50 59.59129 22.08012 33486 ft 396 kts 243°
2026-05-04 17:51 59.57786 22.03259 33689 ft 397 kts 243°
2026-05-04 17:51 59.56448 21.98534 33764 ft 393 kts 243°
2026-05-04 17:51 59.53792 21.89193 33729 ft 389 kts 243°
2026-05-04 17:52 59.51143 21.79911 33683 ft 389 kts 243°
2026-05-04 17:52 59.48485 21.70627 33728 ft 390 kts 243°
2026-05-04 17:53 59.45815 21.61353 33728 ft 390 kts 243°
2026-05-04 17:53 59.43136 21.52074 33734 ft 390 kts 243°
2026-05-04 17:54 59.40460 21.42803 33735 ft 390 kts 243°
2026-05-04 17:54 59.37772 21.33545 33728 ft 390 kts 243°
2026-05-04 17:55 59.35070 21.24315 33731 ft 390 kts 243°
2026-05-04 17:55 59.32359 21.15106 33729 ft 390 kts 243°
2026-05-04 17:56 59.29655 21.05908 33690 ft 390 kts 243°
2026-05-04 17:56 59.26940 20.96712 33741 ft 390 kts 244°
2026-05-04 17:57 59.24230 20.87551 33739 ft 389 kts 244°
2026-05-04 17:57 59.21534 20.78486 33739 ft 388 kts 244°
2026-05-04 17:58 59.18789 20.69341 33747 ft 388 kts 242°
2026-05-04 17:58 59.15317 20.61150 33741 ft 394 kts 233°
2026-05-04 17:59 59.11677 20.53265 33695 ft 394 kts 233°
2026-05-04 18:00 59.06178 20.41367 33705 ft 395 kts 233°
2026-05-04 18:00 59.02494 20.33422 33718 ft 396 kts 233°
2026-05-04 18:01 58.98807 20.25489 33723 ft 396 kts 233°
2026-05-04 18:01 58.95104 20.17583 33727 ft 397 kts 233°
2026-05-04 18:02 58.89532 20.05726 33691 ft 397 kts 233°
2026-05-04 18:02 58.85801 19.97819 33728 ft 398 kts 233°
2026-05-04 18:03 58.82058 19.89928 33747 ft 398 kts 233°
2026-05-04 18:03 58.78315 19.82056 33749 ft 398 kts 233°
2026-05-04 18:04 58.74576 19.74196 33747 ft 398 kts 233°
2026-05-04 18:05 58.68954 19.62444 33745 ft 397 kts 233°
2026-05-04 18:05 58.65204 19.54636 33714 ft 398 kts 233°
2026-05-04 18:06 58.59566 19.42952 33729 ft 400 kts 233°
2026-05-04 18:06 58.55777 19.35135 33733 ft 400 kts 232°
2026-05-04 18:07 58.51978 19.27328 33734 ft 401 kts 232°
2026-05-04 18:07 58.48171 19.19544 33743 ft 401 kts 232°
2026-05-04 18:08 58.44361 19.11768 33715 ft 401 kts 232°
2026-05-04 18:08 58.40538 19.03972 33727 ft 402 kts 232°
2026-05-04 18:09 58.32880 18.88466 33739 ft 402 kts 232°
2026-05-04 18:10 58.29037 18.80724 33749 ft 403 kts 232°
2026-05-04 18:10 58.25214 18.73045 33750 ft 403 kts 232°
2026-05-04 18:11 58.21355 18.65332 33742 ft 404 kts 231°
2026-05-04 18:11 58.17462 18.57583 33744 ft 406 kts 231°
2026-05-04 18:12 58.13562 18.49840 33753 ft 406 kts 231°
2026-05-04 18:12 58.09662 18.42111 33757 ft 406 kts 231°
2026-05-04 18:13 58.05753 18.34396 33759 ft 407 kts 231°
2026-05-04 18:14 57.99877 18.22842 33733 ft 407 kts 231°
2026-05-04 18:14 57.95949 18.15145 33749 ft 408 kts 231°
2026-05-04 18:15 57.88047 17.99770 33764 ft 409 kts 230°
2026-05-04 18:16 57.84084 17.92120 33765 ft 408 kts 230°
2026-05-04 18:16 57.80127 17.84471 33767 ft 408 kts 230°
2026-05-04 18:17 57.74182 17.73014 33747 ft 409 kts 230°
2026-05-04 18:18 57.68224 17.61616 33762 ft 411 kts 230°
2026-05-04 18:18 57.64218 17.53995 33771 ft 411 kts 230°
2026-05-04 18:19 57.58212 17.42580 33781 ft 411 kts 230°
2026-05-04 18:19 57.54198 17.34995 33784 ft 411 kts 230°
2026-05-04 18:20 57.50175 17.27429 33788 ft 411 kts 230°
2026-05-04 18:20 57.46146 17.19872 33792 ft 411 kts 230°
2026-05-04 18:21 57.42113 17.12326 33801 ft 411 kts 229°
2026-05-04 18:21 57.38085 17.04807 33801 ft 411 kts 229°
2026-05-04 18:22 57.34048 16.97305 33803 ft 411 kts 229°
2026-05-04 18:22 57.30032 16.89868 33793 ft 411 kts 229°
2026-05-04 18:23 57.25986 16.82399 33798 ft 411 kts 229°
2026-05-04 18:23 57.21906 16.74888 33808 ft 411 kts 229°
2026-05-04 18:24 57.17852 16.67457 33812 ft 411 kts 229°
2026-05-04 18:24 57.13783 16.60040 33820 ft 411 kts 229°
2026-05-04 18:25 57.09721 16.52642 33791 ft 411 kts 229°
2026-05-04 18:25 57.05650 16.45229 33803 ft 412 kts 229°
2026-05-04 18:26 57.01592 16.37879 33809 ft 413 kts 228°
2026-05-04 18:26 56.97494 16.30486 33817 ft 413 kts 228°
2026-05-04 18:27 56.93393 16.23105 33837 ft 413 kts 228°
2026-05-04 18:27 56.89281 16.15749 33845 ft 413 kts 228°
2026-05-04 18:28 56.85171 16.08403 33830 ft 413 kts 228°
2026-05-04 18:28 56.81054 16.01066 33837 ft 414 kts 228°
2026-05-04 18:29 56.76924 15.93735 33846 ft 414 kts 228°
2026-05-04 18:29 56.72793 15.86424 33852 ft 414 kts 228°
2026-05-04 18:30 56.66616 15.75548 33867 ft 414 kts 228°
2026-05-04 18:31 56.62479 15.68273 33846 ft 414 kts 227°
2026-05-04 18:31 56.58324 15.61009 33862 ft 415 kts 227°
2026-05-04 18:32 56.54165 15.53747 33870 ft 415 kts 227°
2026-05-04 18:32 56.49995 15.46495 33885 ft 415 kts 227°
2026-05-04 18:33 56.45819 15.39263 33892 ft 416 kts 227°
2026-05-04 18:33 56.41638 15.32055 33876 ft 415 kts 227°
2026-05-04 18:34 56.37457 15.24861 33886 ft 415 kts 227°
2026-05-04 18:34 56.33989 15.18892 33889 ft 415 kts 227°
2026-05-04 18:35 56.29810 15.11747 33888 ft 414 kts 227°
2026-05-04 18:35 56.25634 15.04612 33886 ft 413 kts 229°
2026-05-04 18:35 56.23796 15.00688 33410 ft 409 kts 235°
2026-05-04 18:36 56.22053 14.96629 32552 ft 411 kts 235°
2026-05-04 18:36 56.20330 14.92554 31930 ft 408 kts 235°
2026-05-04 18:36 56.18633 14.88519 31402 ft 403 kts 235°
2026-05-04 18:36 56.16953 14.84533 30881 ft 399 kts 235°
2026-05-04 18:37 56.15283 14.80589 30361 ft 395 kts 235°
2026-05-04 18:37 56.13608 14.76704 29693 ft 394 kts 234°
2026-05-04 18:37 56.11903 14.72832 28856 ft 396 kts 234°
2026-05-04 18:37 56.10192 14.68985 28213 ft 394 kts 234°
2026-05-04 18:38 56.08491 14.65172 27682 ft 389 kts 234°
2026-05-04 18:38 56.06836 14.61469 27172 ft 375 kts 234°
2026-05-04 18:38 56.05229 14.57867 26374 ft 367 kts 234°
2026-05-04 18:38 56.03649 14.54320 25538 ft 362 kts 234°
2026-05-04 18:39 56.02092 14.50821 24774 ft 358 kts 234°
2026-05-04 18:39 56.00547 14.47347 24195 ft 354 kts 234°
2026-05-04 18:39 55.99020 14.43924 23605 ft 351 kts 234°
2026-05-04 18:39 55.97497 14.40521 23112 ft 349 kts 234°
2026-05-04 18:40 55.95989 14.37156 22619 ft 345 kts 234°
2026-05-04 18:40 55.94514 14.33869 22142 ft 343 kts 234°
2026-05-04 18:40 55.93011 14.30523 21669 ft 340 kts 234°
2026-05-04 18:40 55.91541 14.27254 21214 ft 337 kts 234°
2026-05-04 18:41 55.90099 14.24045 20813 ft 335 kts 234°
2026-05-04 18:41 55.88641 14.20811 20431 ft 334 kts 234°
2026-05-04 18:41 55.87187 14.17589 20054 ft 333 kts 234°
2026-05-04 18:41 55.85741 14.14390 19682 ft 331 kts 234°
2026-05-04 18:42 55.84303 14.11212 19311 ft 328 kts 234°
2026-05-04 18:42 55.82875 14.08057 18948 ft 326 kts 234°
2026-05-04 18:42 55.81455 14.04924 18600 ft 324 kts 234°
2026-05-04 18:42 55.80041 14.01818 18249 ft 322 kts 234°
2026-05-04 18:43 55.78636 13.98735 17846 ft 320 kts 234°
2026-05-04 18:43 55.77237 13.95666 17421 ft 318 kts 234°
2026-05-04 18:43 55.75848 13.92615 16998 ft 316 kts 234°
2026-05-04 18:43 55.74473 13.89600 16570 ft 313 kts 234°
2026-05-04 18:44 55.73105 13.86610 16076 ft 310 kts 234°
2026-05-04 18:44 55.72204 13.84642 15683 ft 309 kts 234°
2026-05-04 18:44 55.70398 13.80696 15067 ft 307 kts 234°
2026-05-04 18:44 55.69049 13.77753 14646 ft 307 kts 233°
2026-05-04 18:45 55.67703 13.74828 14222 ft 306 kts 233°
2026-05-04 18:45 55.66360 13.71912 13797 ft 305 kts 233°
2026-05-04 18:45 55.64808 13.69351 13363 ft 309 kts 214°
2026-05-04 18:45 55.62776 13.68033 13030 ft 315 kts 197°
2026-05-04 18:46 55.60628 13.67261 12715 ft 315 kts 196°
2026-05-04 18:46 55.58480 13.66535 12403 ft 314 kts 195°
2026-05-04 18:46 55.56341 13.65814 12096 ft 313 kts 195°
2026-05-04 18:46 55.54203 13.65091 11779 ft 312 kts 195°
2026-05-04 18:47 55.52077 13.64366 11464 ft 311 kts 195°
2026-05-04 18:47 55.49956 13.63636 11164 ft 310 kts 195°
2026-05-04 18:47 55.47851 13.62907 10865 ft 306 kts 195°
2026-05-04 18:47 55.45783 13.62189 10574 ft 300 kts 195°
2026-05-04 18:48 55.43752 13.61485 10324 ft 295 kts 195°
2026-05-04 18:48 55.41772 13.60746 10085 ft 286 kts 201°
2026-05-04 18:48 55.40048 13.59209 9845 ft 274 kts 222°
2026-05-04 18:48 55.38808 13.56762 9664 ft 267 kts 242°
2026-05-04 18:49 55.38164 13.53738 9475 ft 264 kts 262°
2026-05-04 18:49 55.38178 13.50533 9312 ft 264 kts 281°
2026-05-04 18:49 55.38838 13.47530 9190 ft 266 kts 299°
2026-05-04 18:49 55.39828 13.44783 9051 ft 266 kts 300°
2026-05-04 18:50 55.40821 13.42035 8921 ft 266 kts 300°
2026-05-04 18:50 55.41808 13.39290 8796 ft 265 kts 300°
2026-05-04 18:50 55.42790 13.36550 8662 ft 264 kts 300°
2026-05-04 18:50 55.43770 13.33815 8474 ft 264 kts 300°
2026-05-04 18:51 55.44720 13.31156 8219 ft 257 kts 300°
2026-05-04 18:51 55.45506 13.28353 7959 ft 249 kts 286°
2026-05-04 18:51 55.45812 13.25423 7768 ft 247 kts 272°
2026-05-04 18:51 55.45704 13.22414 7592 ft 246 kts 264°
2026-05-04 18:52 55.45519 13.19435 7418 ft 241 kts 264°
2026-05-04 18:52 55.45342 13.16545 7292 ft 235 kts 264°
2026-05-04 18:52 55.45167 13.13688 7165 ft 234 kts 264°
2026-05-04 18:52 55.44994 13.10834 7063 ft 234 kts 264°
2026-05-04 18:53 55.44819 13.07984 6921 ft 234 kts 264°
2026-05-04 18:53 55.44642 13.05140 6804 ft 233 kts 264°
2026-05-04 18:53 55.44466 13.02304 6681 ft 233 kts 264°
2026-05-04 18:53 55.44290 12.99477 6558 ft 233 kts 264°
2026-05-04 18:54 55.44115 12.96692 6436 ft 224 kts 264°
2026-05-04 18:54 55.44051 12.93978 6316 ft 221 kts 275°
2026-05-04 18:54 55.44356 12.91329 6181 ft 221 kts 288°
2026-05-04 18:54 55.44939 12.88816 6049 ft 222 kts 291°
2026-05-04 18:55 55.45531 12.86307 5921 ft 221 kts 291°
2026-05-04 18:55 55.47095 12.81674 5682 ft 226 kts 319°
2026-05-04 18:55 55.48508 12.80429 5579 ft 232 kts 343°
2026-05-04 18:56 55.50138 12.80375 5476 ft 239 kts
2026-05-04 18:56 55.51736 12.81252 5376 ft 240 kts 14°
2026-05-04 18:56 55.53287 12.82160 5270 ft 232 kts 14°
2026-05-04 18:56 55.54819 12.83051 5162 ft 232 kts 14°
2026-05-04 18:57 55.56343 12.83967 5080 ft 231 kts 17°
2026-05-04 18:57 55.57843 12.85001 4983 ft 232 kts 18°
2026-05-04 18:57 55.59332 12.86082 4881 ft 231 kts 19°
2026-05-04 18:57 55.60818 12.87173 4780 ft 231 kts 19°
2026-05-04 18:58 55.62283 12.88324 4682 ft 231 kts 26°
2026-05-04 18:58 55.63613 12.89946 4582 ft 234 kts 38°
2026-05-04 18:58 55.64829 12.91867 4471 ft 234 kts 38°
2026-05-04 18:58 55.66046 12.93783 4372 ft 233 kts 38°
2026-05-04 18:59 55.67250 12.95704 4268 ft 232 kts 38°
2026-05-04 18:59 55.68434 12.97595 4163 ft 232 kts 38°
2026-05-04 18:59 55.69624 12.99498 4054 ft 226 kts 38°
2026-05-04 18:59 55.70754 13.01329 4015 ft 214 kts 38°
2026-05-04 19:00 55.71836 13.03093 4019 ft 210 kts 37°
2026-05-04 19:00 55.73056 13.04394 4027 ft 203 kts 15°
2026-05-04 19:00 55.74395 13.05154 4025 ft 201 kts 11°
2026-05-04 19:00 55.75747 13.05747 4020 ft 198 kts 358°
2026-05-04 19:01 55.77024 13.05195 4025 ft 189 kts 324°
2026-05-04 19:01 55.78071 13.03800 4024 ft 188 kts 317°
2026-05-04 19:01 55.79030 13.02226 4020 ft 187 kts 304°
2026-05-04 19:01 55.79431 13.00093 3999 ft 186 kts 268°
2026-05-04 19:02 55.79212 12.97817 3907 ft 188 kts 257°
2026-05-04 19:02 55.78861 12.95574 3807 ft 189 kts 256°
2026-05-04 19:02 55.78489 12.93333 3700 ft 189 kts 256°
2026-05-04 19:02 55.78112 12.91101 3612 ft 189 kts 255°
2026-05-04 19:03 55.77616 12.88939 3529 ft 191 kts 232°
2026-05-04 19:03 55.76581 12.87417 3467 ft 195 kts 223°
2026-05-04 19:03 55.75566 12.85827 3386 ft 195 kts 225°
2026-05-04 19:03 55.74557 12.84222 3333 ft 195 kts 225°
2026-05-04 19:04 55.73563 12.82660 3282 ft 188 kts 225°
2026-05-04 19:04 55.72592 12.81141 3033 ft 185 kts 225°
2026-05-04 19:04 55.71630 12.79638 2789 ft 184 kts 225°
2026-05-04 19:04 55.70669 12.78139 2548 ft 184 kts 225°
2026-05-04 19:05 55.69711 12.76645 2298 ft 183 kts 225°
2026-05-04 19:05 55.68758 12.75161 2049 ft 182 kts 225°
2026-05-04 19:05 55.67817 12.73697 1801 ft 178 kts 225°
2026-05-04 19:05 55.66904 12.72276 1557 ft 170 kts 225°
2026-05-04 19:06 55.66054 12.70958 1351 ft 153 kts 226°
2026-05-04 19:06 55.65287 12.69768 1137 ft 141 kts 225°
2026-05-04 19:06 55.64571 12.68653 948 ft 136 kts 225°
2026-05-04 19:06 55.63862 12.67551 749 ft 135 kts 225°
2026-05-04 19:07 55.63153 12.66450 564 ft 135 kts 225°
2026-05-04 19:07 55.62446 12.65352 379 ft 135 kts 224°
2026-05-04 19:07 55.61738 12.64255 204 ft 135 kts 225°
2026-05-04 19:07 55.61037 12.63167 28 ft 132 kts 224°
2026-05-04 19:08 55.60497 12.62329 19 ft 63 kts 220°
2026-05-04 19:08 55.60267 12.61969 18 ft 41 kts 221°
2026-05-04 19:08 55.60065 12.61657 19 ft 34 kts 221°
2026-05-04 19:08 55.60041 12.61470 19 ft 15 kts 314°
2026-05-04 19:09 55.60125 12.61499 18 ft 14 kts 41°
2026-05-04 19:09 55.60194 12.61605 19 ft 12 kts 41°
2026-05-04 19:09 55.60255 12.61700 18 ft 11 kts 41°
2026-05-04 19:09 55.60329 12.61815 18 ft 16 kts 41°
2026-05-04 19:10 55.60410 12.61940 18 ft 15 kts 41°
2026-05-04 19:10 55.60484 12.62055 18 ft 13 kts 41°
2026-05-04 19:10 55.60554 12.62163 18 ft 15 kts 41°
2026-05-04 19:10 55.60626 12.62275 18 ft 13 kts 41°
2026-05-04 19:11 55.60695 12.62356 18 ft 11 kts 23°
2026-05-04 19:11 55.60784 12.62409 17 ft 16 kts 24°
2026-05-04 19:11 55.60868 12.62524 17 ft 15 kts 41°
2026-05-04 19:11 55.60943 12.62638 17 ft 13 kts 42°
2026-05-04 19:12 55.61010 12.62743 17 ft 14 kts 41°
2026-05-04 19:12 55.61219 12.63068 17 ft 23 kts 40°
2026-05-04 19:12 55.61343 12.63258 18 ft 25 kts 41°
2026-05-04 19:13 55.61468 12.63452 17 ft 21 kts 41°
2026-05-04 19:13 55.61557 12.63587 17 ft 11 kts 44°
2026-05-04 19:13 55.61570 12.63609 18 ft 0 kts 41°
2026-05-04 19:14 55.61574 12.63615 18 ft 3 kts 40°
2026-05-04 19:14 55.61611 12.63673 17 ft 11 kts 41°
2026-05-04 19:14 55.61688 12.63792 17 ft 18 kts 41°
2026-05-04 19:14 55.61795 12.63956 17 ft 21 kts 41°
2026-05-04 19:15 55.61905 12.64097 17 ft 15 kts 26°
2026-05-04 19:15 55.62010 12.64188 17 ft 19 kts 25°
2026-05-04 19:15 55.62137 12.64295 17 ft 20 kts 25°
2026-05-04 19:15 55.62237 12.64367 15 ft 9 kts 355°
2026-05-04 19:16 55.62280 12.64277 15 ft 12 kts 304°
2026-05-04 19:16 55.62341 12.64112 14 ft 22 kts 303°
2026-05-04 19:16 55.62428 12.63880 16 ft 20 kts 309°
2026-05-04 19:16 55.62509 12.63779 17 ft 12 kts 336°
2026-05-04 19:17 55.62588 12.63771 17 ft 9 kts
2026-05-04 19:17 55.62600 12.63777 17 ft 0 kts 16°
2026-05-04 19:17 55.62604 12.63779 17 ft 4 kts 16°
2026-05-04 19:18 55.62636 12.63802 17 ft 9 kts 28°
2026-05-04 19:18 55.62684 12.63855 18 ft 8 kts 33°
2026-05-04 19:18 55.62728 12.63906 18 ft 7 kts 33°
2026-05-04 19:18 55.62774 12.63957 17 ft 7 kts 25°
2026-05-04 19:19 55.62826 12.63923 17 ft 11 kts 301°
2026-05-04 19:19 55.62847 12.63849 17 ft 2 kts 328°
2026-05-04 19:19 55.62862 12.63855 17 ft 5 kts 23°
2026-05-04 19:19 55.62885 12.63869 17 ft 2 kts 12°
2026-05-04 19:20 55.62893 12.63872 17 ft 0 kts 12°